BREEZE-M DEB, 38636

Orbit data source: Space-Track

BREEZE-M DEB, 38636 is space debris in HEO originally from a launch on Fri, 14 Mar 2008 UTC launched from the Tyuratam Missile And Space Complex (TTMTR). Debris objects in space refer to the collection of defunct objects orbiting the Earth. Examples of debris include non-operational satellites, rocket bodies, and fragments generated from explosions, collisions, or faulty payload assembly.

Loading next visibility...
Identifier
38636, 2008-011CK
Orbit
HEO
Country
Flag of CISCIS
Related business
Manufacturer
Unknown
Mission
Spacecraft
Bus & Motor
Unknown
Mass
Unknown
Launch date (UTC)
2008-03-14 (18 years ago)
Launch vehicle
Unknown
Launch site
Tyuratam Missile And Space Complex (TTMTR)
Object type
Payload
Rocket body
Debris
Shape & HBR
Unknown shape, 0.5 m
Radar Cross Section
Medium (>0.1 m² and <1 m²)

Expand to show TLE details & history
Last TLE update: 9 months ago

TLE from 9 months ago
0 BREEZE-M DEB
1 38636U 08011CK  25275.08629459  .00001512  00000-0  25432-2 0  9997
2 38636  49.4705 317.9242 6523914 246.2626  35.0485  3.18488725164117
Epoch: 2025-10-02T02:04Z
TLE epoch observation values (Epoch: 2025-10-02T02:04:15.852Z)
Latitude
0.00005°
Longitude
-84.16377°
Altitude
8,841.584 km
Speed
5.653 km/s
True Right ascension
21h 11m 49s
True Declination
0° 00' 00"
Sunlit
Object was in daylight at epoch
Visualization orbit readout
Latitude
Unknown
Longitude
Unknown
Altitude
Unknown
Speed
Unknown
Apparent Right ascension
Unknown
Apparent Declination
Unknown
Sunlit
N/A
Visualization observer readout
Local Sidereal Time
23:08:11
Azimuth
Unknown
Elevation
Unknown
Doppler factor
Unknown
Orbital elements
Apogee altitude
25,867.26 km
Perigee altitude
405.23 km
Semi-major axis
19,514.382 km
Eccentricity
0.65239
Inclination
49.4705°
RAAN
317.9242°
Arg. of periapsis
246.2626°
True anomaly
113.76514°
Mean anomaly
35.0485°
Eccentric anomaly
70.22303°
Mean motion
0.79618 °/min
Orbital period
452.16 mins
BSTAR
0.0025432
Loading maneuver chart data...
Computing Atmospheric mass density...
Loading historical data...
Loading historical data...
Loading historical data...
Loading historical data...
Loading historical data...
Loading historical data...
Loading historical data...

Documentation

Showing up to 5 results
|